Time,TemperatureF,DewpointF,PressureIn,WindDirection,WindDirectionDegrees,WindSpeedMPH,WindSpeedGustMPH,Humidity,HourlyPrecipIn,Conditions,Clouds,dailyrainin,SoftwareType,DateUTC
2013-01-14 00:00:00,42.2,42.2,29.92,WNW,298,0.0,0.0,100,0.00,,---,0.00,VWS V14.01,2013-01-14 05:00:00,
2013-01-14 00:01:00,42.2,42.2,29.92,WNW,298,0.0,0.0,100,0.00,,---,0.00,VWS V14.01,2013-01-14 05:01:00,
2013-01-14 00:03:00,42.2,42.2,29.92,WNW,298,0.0,0.0,100,0.00,,---,0.00,VWS V14.01,2013-01-14 05:03:00,
2013-01-14 00:08:00,42.2,42.2,29.92,WNW,298,0.0,0.0,100,0.00,,---,0.00,VWS V14.01,2013-01-14 05:08:00,
2013-01-14 00:13:00,42.2,42.2,29.92,WNW,298,0.0,0.0,100,0.00,,---,0.00,VWS V14.01,2013-01-14 05:13:00,
2013-01-14 00:18:00,42.2,42.2,29.92,WNW,302,0.0,0.0,100,0.00,,---,0.00,VWS V14.01,2013-01-14 05:18:00,
2013-01-14 00:23:00,42.2,42.2,29.92,NW,304,3.1,3.1,100,0.00,,---,0.00,VWS V14.01,2013-01-14 05:23:00,
2013-01-14 00:28:00,42.2,42.2,29.92,West,261,3.6,3.6,100,0.00,,---,0.00,VWS V14.01,2013-01-14 05:28:00,
2013-01-14 00:33:00,42.2,42.2,29.92,West,261,0.0,0.0,100,0.00,,---,0.00,VWS V14.01,2013-01-14 05:33:00,
2013-01-14 00:38:00,42.2,42.2,29.92,WNW,299,0.0,0.0,100,0.00,,---,0.00,VWS V14.01,2013-01-14 05:38:00,
2013-01-14 00:43:00,42.2,42.2,29.92,WNW,299,0.0,0.0,100,0.00,,---,0.00,VWS V14.01,2013-01-14 05:43:00,
2013-01-14 00:48:00,42.2,42.2,29.92,WNW,299,0.0,0.0,100,0.00,,---,0.00,VWS V14.01,2013-01-14 05:48:00,
2013-01-14 00:53:00,42.2,42.2,29.92,WNW,298,0.0,0.0,100,0.00,,---,0.00,VWS V14.01,2013-01-14 05:53:00,
2013-01-14 00:58:00,42.2,42.2,29.92,West,275,2.7,3.1,100,0.00,,---,0.00,VWS V14.01,2013-01-14 05:58:00,
2013-01-14 01:03:00,42.2,42.2,29.92,West,272,0.0,0.0,100,0.00,,---,0.00,VWS V14.01,2013-01-14 06:03:00,
2013-01-14 01:08:00,42.2,42.2,29.92,West,272,0.0,0.0,100,0.00,,---,0.00,VWS V14.01,2013-01-14 06:08:00,
2013-01-14 01:13:00,42.2,42.2,29.92,West,272,0.0,0.0,100,0.00,,---,0.00,VWS V14.01,2013-01-14 06:13:00,
2013-01-14 01:18:00,42.2,42.2,29.92,West,272,0.0,0.0,100,0.00,,---,0.00,VWS V14.01,2013-01-14 06:18:00,
2013-01-14 01:23:00,42.2,42.2,29.92,West,272,0.0,0.0,100,0.00,,---,0.00,VWS V14.01,2013-01-14 06:23:00,
2013-01-14 01:28:00,42.2,42.2,29.92,West,272,0.0,0.0,100,0.00,,---,0.00,VWS V14.01,2013-01-14 06:28:00,
2013-01-14 01:33:00,42.2,42.2,29.92,West,272,0.0,0.0,100,0.04,,---,0.04,VWS V14.01,2013-01-14 06:33:00,
2013-01-14 01:38:00,42.2,42.2,29.92,West,272,0.0,0.0,100,0.08,,---,0.08,VWS V14.01,2013-01-14 06:38:00,
2013-01-14 01:43:00,42.2,42.2,29.92,West,272,0.0,0.0,100,0.08,,---,0.08,VWS V14.01,2013-01-14 06:43:00,
2013-01-14 01:48:00,42.2,42.2,29.92,West,271,0.0,0.0,100,0.08,,---,0.08,VWS V14.01,2013-01-14 06:48:00,
2013-01-14 01:53:00,42.2,42.2,29.92,WSW,237,3.1,3.1,100,0.08,,---,0.08,VWS V14.01,2013-01-14 06:53:00,
2013-01-14 01:58:00,42.2,42.2,29.92,West,268,3.6,3.6,100,0.08,,---,0.08,VWS V14.01,2013-01-14 06:58:00,
2013-01-14 02:03:00,42.2,42.2,29.92,WSW,258,3.1,3.1,100,0.12,,---,0.12,VWS V14.01,2013-01-14 07:03:00,
2013-01-14 02:08:00,42.2,42.2,29.92,West,260,0.0,0.0,100,0.12,,---,0.12,VWS V14.01,2013-01-14 07:08:00,
2013-01-14 02:13:00,42.2,42.2,29.92,West,260,0.0,0.0,100,0.12,,---,0.12,VWS V14.01,2013-01-14 07:13:00,
2013-01-14 02:18:00,42.2,42.2,29.92,ESE,108,2.7,4.0,100,0.12,,---,0.12,VWS V14.01,2013-01-14 07:18:00,
2013-01-14 02:23:00,42.2,42.2,29.86,ESE,116,3.6,4.0,100,0.12,,---,0.12,VWS V14.01,2013-01-14 07:23:00,
2013-01-14 02:28:00,42.2,42.2,29.86,East,91,6.9,6.9,100,0.12,,---,0.12,VWS V14.01,2013-01-14 07:28:00,
2013-01-14 02:33:00,42.2,42.2,29.86,West,272,3.1,3.6,100,0.08,,---,0.12,VWS V14.01,2013-01-14 07:33:00,
2013-01-14 02:38:00,42.2,42.2,29.89,West,265,0.0,0.0,100,0.04,,---,0.12,VWS V14.01,2013-01-14 07:38:00,
2013-01-14 02:43:00,42.2,42.2,29.89,NW,313,2.7,3.1,100,0.04,,---,0.12,VWS V14.01,2013-01-14 07:43:00,
2013-01-14 02:48:00,42.2,42.2,29.89,WNW,287,4.5,4.5,100,0.04,,---,0.12,VWS V14.01,2013-01-14 07:48:00,
2013-01-14 02:53:00,42.2,42.2,29.89,WNW,302,2.7,4.5,100,0.04,,---,0.12,VWS V14.01,2013-01-14 07:53:00,
2013-01-14 02:58:00,42.2,42.2,29.89,WNW,284,3.6,4.5,100,0.04,,---,0.12,VWS V14.01,2013-01-14 07:58:00,
2013-01-14 03:03:00,42.2,42.2,29.89,WNW,303,4.5,4.5,100,0.00,,---,0.12,VWS V14.01,2013-01-14 08:03:00,
2013-01-14 03:08:00,42.2,42.2,29.92,SSE,152,4.0,4.0,100,0.00,,---,0.12,VWS V14.01,2013-01-14 08:08:00,
2013-01-14 03:13:00,42.2,42.2,29.92,SE,130,0.0,0.0,100,0.00,,---,0.12,VWS V14.01,2013-01-14 08:13:00,
2013-01-14 03:18:00,42.2,42.2,29.92,SE,125,0.0,0.0,100,0.00,,---,0.12,VWS V14.01,2013-01-14 08:18:00,
2013-01-14 03:23:00,42.2,42.2,29.89,NNW,339,4.5,4.5,100,0.00,,---,0.12,VWS V14.01,2013-01-14 08:23:00,
2013-01-14 03:28:00,42.2,42.2,29.89,NW,317,0.0,0.0,100,0.00,,---,0.12,VWS V14.01,2013-01-14 08:28:00,
2013-01-14 03:33:00,42.2,42.2,29.89,NNW,329,0.0,0.0,100,0.00,,---,0.12,VWS V14.01,2013-01-14 08:33:00,
2013-01-14 03:38:00,42.2,42.2,29.89,NNW,329,0.0,0.0,100,0.00,,---,0.12,VWS V14.01,2013-01-14 08:38:00,
2013-01-14 03:43:00,42.2,42.2,29.89,NNW,329,0.0,0.0,100,0.00,,---,0.12,VWS V14.01,2013-01-14 08:43:00,
2013-01-14 03:48:00,42.2,42.2,29.89,WNW,289,0.0,0.0,100,0.00,,---,0.12,VWS V14.01,2013-01-14 08:48:00,
2013-01-14 03:53:00,42.2,42.2,29.89,WNW,289,0.0,0.0,100,0.00,,---,0.12,VWS V14.01,2013-01-14 08:53:00,
2013-01-14 03:58:00,42.2,42.2,29.89,WNW,289,0.0,0.0,100,0.00,,---,0.12,VWS V14.01,2013-01-14 08:58:00,
2013-01-14 04:03:00,42.2,42.2,29.89,WNW,289,0.0,0.0,100,0.00,,---,0.12,VWS V14.01,2013-01-14 09:03:00,
2013-01-14 04:08:00,42.2,42.2,29.89,WNW,289,0.0,0.0,100,0.00,,---,0.12,VWS V14.01,2013-01-14 09:08:00,
2013-01-14 04:13:00,42.2,42.2,29.89,WNW,289,0.0,0.0,100,0.00,,---,0.12,VWS V14.01,2013-01-14 09:13:00,
2013-01-14 04:18:00,42.2,42.2,29.89,WNW,289,0.0,0.0,100,0.00,,---,0.12,VWS V14.01,2013-01-14 09:18:00,
2013-01-14 04:23:00,42.2,42.2,29.89,West,263,3.6,3.6,100,0.00,,---,0.12,VWS V14.01,2013-01-14 09:23:00,
2013-01-14 04:28:00,42.2,42.2,29.89,SW,218,2.7,3.1,100,0.00,,---,0.12,VWS V14.01,2013-01-14 09:28:00,
2013-01-14 04:33:00,42.2,42.2,29.89,SSW,201,4.0,4.5,100,0.00,,---,0.12,VWS V14.01,2013-01-14 09:33:00,
2013-01-14 04:38:00,42.2,42.2,29.89,South,183,2.7,3.6,100,0.00,,---,0.12,VWS V14.01,2013-01-14 09:38:00,
2013-01-14 04:43:00,42.2,42.2,29.89,SSW,207,0.0,0.0,100,0.00,,---,0.12,VWS V14.01,2013-01-14 09:43:00,
2013-01-14 04:48:00,42.2,42.2,29.89,SSW,207,0.0,0.0,100,0.00,,---,0.12,VWS V14.01,2013-01-14 09:48:00,
2013-01-14 04:53:00,42.2,42.2,29.89,SSW,207,0.0,0.0,100,0.00,,---,0.12,VWS V14.01,2013-01-14 09:53:00,
2013-01-14 04:58:00,42.2,42.2,29.89,SSW,207,0.0,0.0,100,0.00,,---,0.12,VWS V14.01,2013-01-14 09:58:00,
2013-01-14 05:03:00,42.2,42.2,29.89,SSW,201,0.0,0.0,100,0.00,,---,0.12,VWS V14.01,2013-01-14 10:03:00,
2013-01-14 05:08:00,42.2,42.2,29.89,West,278,3.6,3.6,100,0.00,,---,0.12,VWS V14.01,2013-01-14 10:08:00,
2013-01-14 05:13:00,42.2,42.2,29.89,WNW,294,3.6,3.6,100,0.00,,---,0.12,VWS V14.01,2013-01-14 10:13:00,
2013-01-14 05:18:00,42.2,42.2,29.89,North,9,4.9,4.9,100,0.00,,---,0.12,VWS V14.01,2013-01-14 10:18:00,
2013-01-14 05:23:00,42.2,42.2,29.89,WNW,283,0.0,0.0,100,0.00,,---,0.12,VWS V14.01,2013-01-14 10:23:00,
2013-01-14 05:28:00,42.2,42.2,29.89,WNW,292,0.0,0.0,100,0.00,,---,0.12,VWS V14.01,2013-01-14 10:28:00,
2013-01-14 05:33:00,42.2,42.2,29.89,WNW,285,0.0,0.0,100,0.00,,---,0.12,VWS V14.01,2013-01-14 10:33:00,
2013-01-14 05:38:00,42.2,42.2,29.92,WNW,291,4.5,4.5,100,0.00,,---,0.12,VWS V14.01,2013-01-14 10:38:00,
2013-01-14 05:43:00,42.2,42.2,29.92,WNW,287,4.5,4.5,100,0.00,,---,0.12,VWS V14.01,2013-01-14 10:43:00,
2013-01-14 05:48:00,42.2,42.2,29.92,West,267,0.0,0.0,100,0.00,,---,0.12,VWS V14.01,2013-01-14 10:48:00,
2013-01-14 05:53:00,42.2,42.2,29.95,West,267,0.0,0.0,100,0.00,,---,0.12,VWS V14.01,2013-01-14 10:53:00,
2013-01-14 05:58:00,42.2,42.2,29.95,SE,137,3.6,3.6,100,0.00,,---,0.12,VWS V14.01,2013-01-14 10:58:00,
2013-01-14 06:03:00,42.2,42.2,29.95,SE,138,0.0,0.0,100,0.00,,---,0.12,VWS V14.01,2013-01-14 11:03:00,
2013-01-14 06:08:00,42.2,42.2,29.95,SSW,212,3.1,5.4,100,0.00,,---,0.12,VWS V14.01,2013-01-14 11:08:00,
2013-01-14 06:13:00,42.2,42.2,29.95,SSW,211,0.0,0.0,100,0.00,,---,0.12,VWS V14.01,2013-01-14 11:13:00,
2013-01-14 06:18:00,42.2,42.2,29.95,SSW,211,0.0,0.0,100,0.00,,---,0.12,VWS V14.01,2013-01-14 11:18:00,
2013-01-14 06:23:00,42.2,42.2,29.95,SSW,211,0.0,0.0,100,0.00,,---,0.12,VWS V14.01,2013-01-14 11:23:00,
2013-01-14 06:28:00,42.2,42.2,29.95,SSW,211,0.0,0.0,100,0.00,,---,0.12,VWS V14.01,2013-01-14 11:28:00,
2013-01-14 06:33:00,42.2,42.2,29.95,SSW,211,0.0,0.0,100,0.00,,---,0.12,VWS V14.01,2013-01-14 11:33:00,
2013-01-14 06:38:00,42.2,42.2,29.98,SW,236,0.0,0.0,100,0.00,,---,0.12,VWS V14.01,2013-01-14 11:38:00,
2013-01-14 06:43:00,42.2,42.2,29.98,SW,221,0.0,0.0,100,0.00,,---,0.12,VWS V14.01,2013-01-14 11:43:00,
2013-01-14 06:48:00,42.2,42.2,29.98,SW,214,3.6,4.5,100,0.00,,---,0.12,VWS V14.01,2013-01-14 11:48:00,
2013-01-14 06:53:00,42.2,42.2,29.98,WSW,237,2.7,4.0,100,0.00,,---,0.12,VWS V14.01,2013-01-14 11:53:00,
2013-01-14 06:58:00,42.2,42.2,29.98,West,266,3.1,4.9,100,0.00,,---,0.12,VWS V14.01,2013-01-14 11:58:00,
2013-01-14 07:03:00,42.2,42.2,29.98,West,262,6.3,6.3,100,0.00,,---,0.12,VWS V14.01,2013-01-14 12:03:00,
2013-01-14 07:07:00,42.2,42.2,29.98,North,1,0.0,0.0,100,0.00,,---,0.12,VWS V14.01,2013-01-14 12:07:00,
2013-01-14 07:12:00,42.2,42.2,29.98,SE,144,0.0,0.0,100,0.00,,---,0.12,VWS V14.01,2013-01-14 12:12:00,
2013-01-14 07:17:00,42.2,42.2,29.98,SW,215,0.0,0.0,100,0.00,,---,0.12,VWS V14.01,2013-01-14 12:17:00,
2013-01-14 07:22:00,42.2,42.2,30.01,SW,215,0.0,0.0,100,0.00,,---,0.12,VWS V14.01,2013-01-14 12:22:00,
2013-01-14 07:27:00,42.2,42.2,30.01,SW,215,0.0,0.0,100,0.00,,---,0.12,VWS V14.01,2013-01-14 12:27:00,
2013-01-14 07:32:00,42.2,42.2,30.01,SW,215,0.0,0.0,100,0.00,,---,0.12,VWS V14.01,2013-01-14 12:32:00,
2013-01-14 07:37:00,42.2,42.2,30.01,SW,215,0.0,0.0,100,0.00,,---,0.12,VWS V14.01,2013-01-14 12:37:00,
2013-01-14 07:43:00,42.2,42.2,30.01,SW,215,0.0,0.0,100,0.00,,---,0.12,VWS V14.01,2013-01-14 12:43:00,
2013-01-14 07:48:00,42.2,42.2,30.01,SW,231,4.5,4.5,100,0.00,,---,0.12,VWS V14.01,2013-01-14 12:48:00,
2013-01-14 07:52:00,-1.0,-22.0,30.01,SSW,205,0.0,0.0,35,0.00,,---,0.12,VWS V14.01,2013-01-14 12:52:00,
2013-01-14 07:57:00,-1.0,-22.0,30.01,SSW,205,0.0,0.0,35,0.00,,---,0.12,VWS V14.01,2013-01-14 12:57:00,
2013-01-14 08:04:00,-1.0,-22.0,30.01,SW,229,0.0,0.0,35,0.00,,---,0.12,VWS V14.01,2013-01-14 13:04:00,
2013-01-14 08:09:00,-1.0,-22.0,30.04,SW,229,0.0,0.0,35,0.00,,---,0.12,VWS V14.01,2013-01-14 13:09:00,
2013-01-14 08:14:00,-1.0,-22.0,30.04,WSW,249,0.0,4.0,35,0.00,,---,0.12,VWS V14.01,2013-01-14 13:14:00,
2013-01-14 08:19:00,-1.0,-22.0,30.04,West,278,4.0,4.0,35,0.00,,---,0.12,VWS V14.01,2013-01-14 13:19:00,
2013-01-14 08:24:00,-1.0,-22.0,30.07,SW,223,0.0,0.0,35,0.00,,---,0.12,VWS V14.01,2013-01-14 13:24:00,
2013-01-14 08:29:00,-1.0,-22.0,30.07,West,263,0.0,0.0,35,0.00,,---,0.12,VWS V14.01,2013-01-14 13:29:00,
2013-01-14 08:34:00,-1.0,-22.0,30.07,NE,55,0.0,0.0,35,0.00,,---,0.12,VWS V14.01,2013-01-14 13:34:00,
2013-01-14 08:39:00,-1.0,-22.0,30.07,WNW,286,6.9,6.9,35,0.00,,---,0.12,VWS V14.01,2013-01-14 13:39:00,
2013-01-14 08:44:00,-1.0,-22.0,30.07,West,276,4.5,4.5,35,0.00,,---,0.12,VWS V14.01,2013-01-14 13:44:00,
2013-01-14 08:49:00,-1.0,-22.0,30.07,West,274,3.6,3.6,35,0.00,,---,0.12,VWS V14.01,2013-01-14 13:49:00,
2013-01-14 08:54:00,-1.0,-22.0,30.07,NW,318,8.7,11.6,35,0.00,,---,0.12,VWS V14.01,2013-01-14 13:54:00,
2013-01-14 08:59:00,-1.0,-22.0,30.07,NW,306,3.6,6.3,35,0.00,,---,0.12,VWS V14.01,2013-01-14 13:59:00,
2013-01-14 09:04:00,-1.0,-22.0,30.07,NW,315,4.5,5.4,35,0.00,,---,0.12,VWS V14.01,2013-01-14 14:04:00,
2013-01-14 09:09:00,-1.0,-22.0,30.10,ENE,62,4.0,5.4,35,0.00,,---,0.12,VWS V14.01,2013-01-14 14:09:00,
2013-01-14 09:14:00,-1.0,-22.0,30.10,WNW,285,6.3,6.7,35,0.00,,---,0.12,VWS V14.01,2013-01-14 14:14:00,
2013-01-14 09:19:00,-1.0,-22.0,30.10,NW,319,6.7,6.9,35,0.00,,---,0.12,VWS V14.01,2013-01-14 14:19:00,
2013-01-14 09:24:00,-1.0,-22.0,30.10,North,351,4.5,4.5,35,0.00,,---,0.12,VWS V14.01,2013-01-14 14:24:00,
2013-01-14 09:29:00,-1.0,-22.0,30.10,NW,321,3.1,8.7,35,0.00,,---,0.12,VWS V14.01,2013-01-14 14:29:00,
2013-01-14 09:34:00,-1.0,-22.0,30.10,WSW,254,8.3,8.3,35,0.00,,---,0.12,VWS V14.01,2013-01-14 14:34:00,
2013-01-14 09:39:00,-1.0,-22.0,30.13,WSW,248,8.7,8.7,35,0.00,,---,0.12,VWS V14.01,2013-01-14 14:39:00,
2013-01-14 09:44:00,-1.0,-22.0,30.13,WSW,257,0.0,0.0,35,0.00,,---,0.12,VWS V14.01,2013-01-14 14:44:00,
2013-01-14 09:49:00,-1.0,-22.0,30.13,NNW,339,11.0,11.2,35,0.00,,---,0.12,VWS V14.01,2013-01-14 14:49:00,
2013-01-14 09:54:00,-1.0,-22.0,30.13,WNW,299,9.2,9.2,35,0.00,,---,0.12,VWS V14.01,2013-01-14 14:54:00,
2013-01-14 09:59:00,-1.0,-22.0,30.13,NW,307,6.9,8.7,35,0.00,,---,0.12,VWS V14.01,2013-01-14 14:59:00,
2013-01-14 10:04:00,-1.0,-22.0,30.13,NW,315,7.8,8.7,35,0.00,,---,0.12,VWS V14.01,2013-01-14 15:04:00,
2013-01-14 10:09:00,-1.0,-22.0,30.13,West,266,0.0,8.7,35,0.00,,---,0.12,VWS V14.01,2013-01-14 15:09:00,
2013-01-14 10:14:00,-1.0,-22.0,30.13,NW,305,9.6,13.0,35,0.00,,---,0.12,VWS V14.01,2013-01-14 15:14:00,
2013-01-14 10:19:00,-1.0,-22.0,30.13,NNW,343,5.8,9.6,35,0.00,,---,0.12,VWS V14.01,2013-01-14 15:19:00,
2013-01-14 10:24:00,-1.0,-22.0,30.16,NNW,331,4.0,4.0,35,0.00,,---,0.12,VWS V14.01,2013-01-14 15:24:00,
2013-01-14 10:29:00,-1.0,-22.0,30.16,West,263,4.5,7.4,35,0.00,,---,0.12,VWS V14.01,2013-01-14 15:29:00,
2013-01-14 10:34:00,-1.0,-22.0,30.16,WNW,291,7.8,7.8,35,0.00,,---,0.12,VWS V14.01,2013-01-14 15:34:00,
2013-01-14 10:39:00,-1.0,-22.0,30.16,NNW,337,6.7,11.0,35,0.00,,---,0.12,VWS V14.01,2013-01-14 15:39:00,
2013-01-14 10:44:00,-1.0,-22.0,30.16,NW,316,8.3,8.3,35,0.00,,---,0.12,VWS V14.01,2013-01-14 15:44:00,
2013-01-14 10:49:00,-1.0,-22.0,30.16,NW,313,11.2,11.2,35,0.00,,---,0.12,VWS V14.01,2013-01-14 15:49:00,
2013-01-14 10:54:00,-1.0,-22.0,30.16,NNE,13,6.9,10.5,35,0.00,,---,0.12,VWS V14.01,2013-01-14 15:54:00,
2013-01-14 10:59:00,50.4,42.5,30.16,NNW,345,6.3,12.5,74,0.00,,---,0.12,VWS V14.01,2013-01-14 15:59:00,
2013-01-14 11:04:00,51.2,43.9,30.16,NNW,340,4.9,5.4,76,0.00,,---,0.12,VWS V14.01,2013-01-14 16:04:00,
2013-01-14 11:09:00,49.0,41.1,30.16,NNW,345,6.7,11.6,74,0.00,,---,0.12,VWS V14.01,2013-01-14 16:09:00,
2013-01-14 11:14:00,51.9,44.2,30.16,NNW,347,5.8,7.4,75,0.00,,---,0.12,VWS V14.01,2013-01-14 16:14:00,
2013-01-14 11:19:00,52.6,44.6,30.16,NNE,15,7.8,11.6,74,0.00,,---,0.12,VWS V14.01,2013-01-14 16:19:00,
2013-01-14 11:24:00,49.5,39.0,30.13,WNW,303,8.3,9.6,67,0.00,,---,0.12,VWS V14.01,2013-01-14 16:24:00,
2013-01-14 11:29:00,49.0,38.5,30.13,NNW,342,6.9,9.2,67,0.00,,---,0.12,VWS V14.01,2013-01-14 16:29:00,
2013-01-14 11:34:00,49.0,37.0,30.13,NNW,339,5.8,12.5,63,0.00,,---,0.12,VWS V14.01,2013-01-14 16:34:00,
2013-01-14 11:39:00,48.5,36.5,30.13,North,351,5.8,9.2,63,0.00,,---,0.12,VWS V14.01,2013-01-14 16:39:00,
2013-01-14 11:44:00,48.8,37.2,30.13,North,356,10.1,15.4,64,0.00,,---,0.12,VWS V14.01,2013-01-14 16:44:00,
2013-01-14 11:49:00,50.6,39.7,30.13,NNW,341,6.7,7.4,66,0.00,,---,0.12,VWS V14.01,2013-01-14 16:49:00,
2013-01-14 11:54:00,49.0,36.6,30.13,North,351,6.9,11.0,62,0.00,,---,0.12,VWS V14.01,2013-01-14 16:54:00,
2013-01-14 11:59:00,50.8,38.3,30.13,WNW,302,13.0,13.0,62,0.00,,---,0.12,VWS V14.01,2013-01-14 16:59:00,
2013-01-14 12:04:00,51.2,38.6,30.13,West,263,5.4,11.2,62,0.00,,---,0.12,VWS V14.01,2013-01-14 17:04:00,
2013-01-14 12:09:00,51.0,38.0,30.13,NW,324,4.5,7.8,61,0.00,,---,0.12,VWS V14.01,2013-01-14 17:09:00,
2013-01-14 12:14:00,51.3,38.4,30.13,NNW,347,5.8,5.8,61,0.00,,---,0.12,VWS V14.01,2013-01-14 17:14:00,
2013-01-14 12:19:00,51.5,37.2,30.13,NE,46,6.9,7.4,58,0.00,,---,0.12,VWS V14.01,2013-01-14 17:19:00,
2013-01-14 12:24:00,51.2,38.2,30.13,NW,325,8.7,8.7,61,0.00,,---,0.12,VWS V14.01,2013-01-14 17:24:00,
2013-01-14 12:28:00,51.2,36.9,30.13,WNW,291,5.4,8.7,58,0.00,,---,0.12,VWS V14.01,2013-01-14 17:28:00,
2013-01-14 12:33:00,49.2,33.3,30.13,NW,325,4.5,5.4,54,0.00,,---,0.12,VWS V14.01,2013-01-14 17:33:00,
2013-01-14 12:38:00,50.4,35.3,30.13,SSW,209,3.1,4.9,56,0.00,,---,0.12,VWS V14.01,2013-01-14 17:38:00,
2013-01-14 12:43:00,50.4,35.3,30.13,North,351,3.6,8.3,56,0.00,,---,0.12,VWS V14.01,2013-01-14 17:43:00,
2013-01-14 12:48:00,47.6,32.7,30.13,North,351,7.8,9.6,56,0.00,,---,0.12,VWS V14.01,2013-01-14 17:48:00,
2013-01-14 12:53:00,47.9,33.0,30.13,NNW,328,4.5,9.2,56,0.00,,---,0.12,VWS V14.01,2013-01-14 17:53:00,
2013-01-14 12:58:00,48.6,33.7,30.13,NNW,342,6.3,11.2,56,0.00,,---,0.12,VWS V14.01,2013-01-14 17:58:00,
2013-01-14 13:03:00,47.7,32.8,30.13,South,186,6.9,11.0,56,0.00,,---,0.12,VWS V14.01,2013-01-14 18:03:00,
2013-01-14 13:08:00,47.0,31.2,30.13,North,8,7.8,11.6,54,0.00,,---,0.12,VWS V14.01,2013-01-14 18:08:00,
2013-01-14 13:13:00,47.0,32.2,30.13,NW,322,0.0,6.7,56,0.00,,---,0.12,VWS V14.01,2013-01-14 18:13:00,
2013-01-14 13:18:00,47.7,32.8,30.13,SSW,195,2.7,12.5,56,0.00,,---,0.12,VWS V14.01,2013-01-14 18:18:00,
2013-01-14 13:23:00,47.0,31.2,30.13,WNW,289,5.8,7.4,54,0.00,,---,0.12,VWS V14.01,2013-01-14 18:23:00,
2013-01-14 13:28:00,47.0,31.2,30.13,NE,35,4.5,6.7,54,0.00,,---,0.12,VWS V14.01,2013-01-14 18:28:00,
2013-01-14 13:33:00,47.2,32.3,30.13,NNW,343,4.9,6.9,56,0.00,,---,0.12,VWS V14.01,2013-01-14 18:33:00,
2013-01-14 13:38:00,46.7,30.9,30.13,WNW,296,4.5,8.3,54,0.00,,---,0.12,VWS V14.01,2013-01-14 18:38:00,
2013-01-14 13:43:00,46.5,31.6,30.13,NNW,333,4.9,7.4,56,0.00,,---,0.12,VWS V14.01,2013-01-14 18:43:00,
2013-01-14 13:48:00,46.7,30.9,30.13,NW,317,3.1,8.3,54,0.00,,---,0.12,VWS V14.01,2013-01-14 18:48:00,
2013-01-14 13:53:00,46.7,30.9,30.13,NW,321,7.8,7.8,54,0.00,,---,0.12,VWS V14.01,2013-01-14 18:53:00,
2013-01-14 13:58:00,46.7,30.9,30.13,WNW,284,4.5,6.7,54,0.00,,---,0.12,VWS V14.01,2013-01-14 18:58:00,
2013-01-14 14:03:00,46.3,30.6,30.13,NNW,330,4.9,8.3,54,0.00,,---,0.12,VWS V14.01,2013-01-14 19:03:00,
2013-01-14 14:08:00,46.3,30.6,30.13,NW,322,4.5,4.5,54,0.00,,---,0.12,VWS V14.01,2013-01-14 19:08:00,
2013-01-14 14:13:00,46.5,30.8,30.13,WNW,295,5.8,6.9,54,0.00,,---,0.12,VWS V14.01,2013-01-14 19:13:00,
2013-01-14 14:18:00,46.7,30.9,30.13,West,273,3.1,6.9,54,0.00,,---,0.12,VWS V14.01,2013-01-14 19:18:00,
2013-01-14 14:23:00,48.1,30.8,30.16,WSW,258,0.0,5.4,51,0.00,,---,0.12,VWS V14.01,2013-01-14 19:23:00,
2013-01-14 14:28:00,47.9,30.7,30.16,North,356,3.6,4.5,51,0.00,,---,0.12,VWS V14.01,2013-01-14 19:28:00,
2013-01-14 14:33:00,47.9,30.7,30.16,NW,305,4.0,4.5,51,0.00,,---,0.12,VWS V14.01,2013-01-14 19:33:00,
2013-01-14 14:38:00,47.7,30.5,30.16,West,269,0.0,5.8,51,0.00,,---,0.12,VWS V14.01,2013-01-14 19:38:00,
2013-01-14 14:43:00,47.7,30.5,30.16,NNW,334,4.5,4.5,51,0.00,,---,0.12,VWS V14.01,2013-01-14 19:43:00,
2013-01-14 14:48:00,47.7,30.5,30.16,WNW,301,5.8,6.7,51,0.00,,---,0.12,VWS V14.01,2013-01-14 19:48:00,
2013-01-14 14:53:00,47.6,30.3,30.16,North,351,7.8,8.3,51,0.00,,---,0.12,VWS V14.01,2013-01-14 19:53:00,
2013-01-14 14:58:00,47.4,30.2,30.16,NNE,30,2.7,4.9,51,0.00,,---,0.12,VWS V14.01,2013-01-14 19:58:00,
2013-01-14 15:03:00,47.2,30.0,30.16,NW,323,5.4,7.8,51,0.00,,---,0.12,VWS V14.01,2013-01-14 20:03:00,
2013-01-14 15:08:00,47.2,30.0,30.16,SW,225,0.0,6.3,51,0.00,,---,0.12,VWS V14.01,2013-01-14 20:08:00,
2013-01-14 15:13:00,47.0,29.9,30.16,NNW,330,5.4,7.8,51,0.00,,---,0.12,VWS V14.01,2013-01-14 20:13:00,
2013-01-14 15:18:00,46.8,29.7,30.16,NNW,343,3.1,4.9,51,0.00,,---,0.12,VWS V14.01,2013-01-14 20:18:00,
2013-01-14 15:23:00,46.8,29.7,30.16,North,356,4.0,7.8,51,0.00,,---,0.12,VWS V14.01,2013-01-14 20:23:00,
2013-01-14 15:28:00,46.7,29.5,30.16,NNW,336,5.4,6.7,51,0.00,,---,0.12,VWS V14.01,2013-01-14 20:28:00,
2013-01-14 15:33:00,46.3,29.6,30.16,North,351,6.3,6.3,52,0.00,,---,0.12,VWS V14.01,2013-01-14 20:33:00,
2013-01-14 15:38:00,45.8,29.1,30.16,North,1,3.1,4.0,52,0.00,,---,0.12,VWS V14.01,2013-01-14 20:38:00,
2013-01-14 15:43:00,45.4,28.8,30.16,WNW,299,3.1,4.5,52,0.00,,---,0.12,VWS V14.01,2013-01-14 20:43:00,
2013-01-14 15:48:00,45.2,28.6,30.16,NNW,341,4.0,4.0,52,0.00,,---,0.12,VWS V14.01,2013-01-14 20:48:00,
2013-01-14 15:53:00,44.9,28.3,30.13,NW,325,3.6,6.7,52,0.00,,---,0.12,VWS V14.01,2013-01-14 20:53:00,
2013-01-14 15:58:00,44.5,28.0,30.13,North,5,2.7,4.5,52,0.00,,---,0.12,VWS V14.01,2013-01-14 20:58:00,
2013-01-14 16:03:00,44.3,27.8,30.13,NNW,344,0.0,3.6,52,0.00,,---,0.12,VWS V14.01,2013-01-14 21:03:00,
2013-01-14 16:08:00,44.0,27.5,30.13,NNW,347,3.1,4.5,52,0.00,,---,0.12,VWS V14.01,2013-01-14 21:08:00,
2013-01-14 16:13:00,43.8,27.3,30.13,NNE,25,0.0,0.0,52,0.00,,---,0.12,VWS V14.01,2013-01-14 21:13:00,
2013-01-14 16:18:00,43.6,27.1,30.13,NNE,33,0.0,0.0,52,0.00,,---,0.12,VWS V14.01,2013-01-14 21:18:00,
2013-01-14 16:23:00,43.4,27.0,30.13,NE,37,0.0,3.6,52,0.00,,---,0.12,VWS V14.01,2013-01-14 21:23:00,
2013-01-14 16:28:00,43.2,26.8,30.13,North,351,0.0,2.7,52,0.00,,---,0.12,VWS V14.01,2013-01-14 21:28:00,
2013-01-14 16:33:00,43.1,26.6,30.13,NNW,337,4.5,6.7,52,0.00,,---,0.12,VWS V14.01,2013-01-14 21:33:00,
2013-01-14 16:38:00,42.7,26.3,30.13,NW,318,3.1,6.9,52,0.00,,---,0.12,VWS V14.01,2013-01-14 21:38:00,
2013-01-14 16:43:00,42.5,26.6,30.13,NW,318,0.0,4.0,53,0.00,,---,0.12,VWS V14.01,2013-01-14 21:43:00,
2013-01-14 16:48:00,42.5,26.6,30.13,ENE,71,3.6,4.9,53,0.00,,---,0.12,VWS V14.01,2013-01-14 21:48:00,
2013-01-14 16:53:00,42.3,26.4,30.16,NNW,337,5.8,6.3,53,0.00,,---,0.12,VWS V14.01,2013-01-14 21:53:00,
2013-01-14 16:58:00,42.0,26.1,30.16,NW,314,5.8,6.7,53,0.00,,---,0.12,VWS V14.01,2013-01-14 21:58:00,
2013-01-14 17:03:00,42.0,26.1,30.16,WSW,249,2.7,6.3,53,0.00,,---,0.12,VWS V14.01,2013-01-14 22:03:00,
2013-01-14 17:08:00,41.8,25.9,30.19,NNE,13,5.8,6.3,53,0.00,,---,0.12,VWS V14.01,2013-01-14 22:08:00,
2013-01-14 17:13:00,41.6,25.8,30.19,North,10,4.0,4.5,53,0.00,,---,0.12,VWS V14.01,2013-01-14 22:13:00,
2013-01-14 17:18:00,41.4,25.6,30.19,WNW,297,0.0,5.8,53,0.00,,---,0.12,VWS V14.01,2013-01-14 22:18:00,
2013-01-14 17:23:00,41.3,25.4,30.19,North,351,6.7,6.7,53,0.00,,---,0.12,VWS V14.01,2013-01-14 22:23:00,
2013-01-14 17:28:00,41.3,25.4,30.19,North,5,4.0,6.3,53,0.00,,---,0.12,VWS V14.01,2013-01-14 22:28:00,
2013-01-14 17:33:00,41.1,25.3,30.19,NW,322,3.1,6.3,53,0.00,,---,0.12,VWS V14.01,2013-01-14 22:33:00,
2013-01-14 17:38:00,40.9,25.1,30.19,North,356,3.6,6.7,53,0.00,,---,0.12,VWS V14.01,2013-01-14 22:38:00,
2013-01-14 17:43:00,40.7,26.3,30.19,North,8,4.0,5.8,56,0.00,,---,0.12,VWS V14.01,2013-01-14 22:43:00,
2013-01-14 17:48:00,40.7,24.9,30.19,NNE,15,3.1,6.9,53,0.00,,---,0.12,VWS V14.01,2013-01-14 22:48:00,
2013-01-14 17:53:00,40.5,24.8,30.19,North,351,5.4,5.4,53,0.00,,---,0.12,VWS V14.01,2013-01-14 22:53:00,
2013-01-14 17:58:00,40.5,24.8,30.19,North,11,4.9,7.8,53,0.00,,---,0.12,VWS V14.01,2013-01-14 22:58:00,
2013-01-14 18:03:00,40.5,24.8,30.19,North,356,5.8,6.9,53,0.00,,---,0.12,VWS V14.01,2013-01-14 23:03:00,
2013-01-14 18:08:00,40.4,24.6,30.19,NNE,25,4.0,9.6,53,0.00,,---,0.12,VWS V14.01,2013-01-14 23:08:00,
2013-01-14 18:13:00,40.2,24.4,30.19,NNW,347,5.4,9.6,53,0.00,,---,0.12,VWS V14.01,2013-01-14 23:13:00,
2013-01-14 18:18:00,40.2,24.4,30.19,NNW,333,5.8,6.3,53,0.00,,---,0.12,VWS V14.01,2013-01-14 23:18:00,
2013-01-14 18:23:00,40.0,24.3,30.22,North,351,4.0,7.4,53,0.00,,---,0.12,VWS V14.01,2013-01-14 23:23:00,
2013-01-14 18:28:00,39.8,24.1,30.22,North,351,3.6,4.5,53,0.00,,---,0.12,VWS V14.01,2013-01-14 23:28:00,
2013-01-14 18:33:00,39.6,23.9,30.22,North,351,0.0,0.0,53,0.00,,---,0.12,VWS V14.01,2013-01-14 23:33:00,
2013-01-14 18:38:00,39.6,25.2,30.22,NNE,12,3.6,4.9,56,0.00,,---,0.12,VWS V14.01,2013-01-14 23:38:00,
2013-01-14 18:43:00,39.5,23.8,30.22,North,356,4.0,4.5,53,0.00,,---,0.12,VWS V14.01,2013-01-14 23:43:00,
2013-01-14 18:48:00,39.3,23.6,30.22,NNW,332,3.6,4.5,53,0.00,,---,0.12,VWS V14.01,2013-01-14 23:48:00,
2013-01-14 18:53:00,39.3,24.9,30.22,North,351,6.7,6.7,56,0.00,,---,0.12,VWS V14.01,2013-01-14 23:53:00,
2013-01-14 18:58:00,38.9,24.6,30.22,North,356,4.9,7.4,56,0.00,,---,0.12,VWS V14.01,2013-01-14 23:58:00,
2013-01-14 19:03:00,38.9,24.6,30.22,NNW,335,4.9,7.8,56,0.00,,---,0.12,VWS V14.01,2013-01-15 00:03:00,
2013-01-14 19:08:00,38.9,24.6,30.24,NW,324,4.9,4.9,56,0.00,,---,0.12,VWS V14.01,2013-01-15 00:08:00,
2013-01-14 19:13:00,38.7,24.4,30.24,WNW,290,3.6,5.4,56,0.00,,---,0.12,VWS V14.01,2013-01-15 00:13:00,
2013-01-14 19:18:00,38.7,23.1,30.24,NNW,342,3.6,5.4,53,0.00,,---,0.12,VWS V14.01,2013-01-15 00:18:00,
2013-01-14 19:23:00,38.6,22.9,30.24,NW,316,0.0,2.7,53,0.00,,---,0.12,VWS V14.01,2013-01-15 00:23:00,
2013-01-14 19:28:00,38.4,22.8,30.24,NW,305,4.5,4.5,53,0.00,,---,0.12,VWS V14.01,2013-01-15 00:28:00,
2013-01-14 19:33:00,38.2,22.6,30.24,WNW,301,0.0,4.5,53,0.00,,---,0.12,VWS V14.01,2013-01-15 00:33:00,
2013-01-14 19:38:00,38.2,22.6,30.24,West,281,0.0,3.6,53,0.00,,---,0.12,VWS V14.01,2013-01-15 00:38:00,
2013-01-14 19:43:00,38.2,22.6,30.24,NW,313,4.9,4.9,53,0.00,,---,0.12,VWS V14.01,2013-01-15 00:43:00,
2013-01-14 19:48:00,38.0,22.4,30.24,WNW,301,3.6,3.6,53,0.00,,---,0.12,VWS V14.01,2013-01-15 00:48:00,
2013-01-14 19:53:00,38.2,22.6,30.22,West,262,0.0,0.0,53,0.00,,---,0.12,VWS V14.01,2013-01-15 00:53:00,
2013-01-14 19:58:00,38.2,22.6,30.22,West,268,0.0,3.6,53,0.00,,---,0.12,VWS V14.01,2013-01-15 00:58:00,
2013-01-14 20:03:00,38.2,22.6,30.22,NW,316,4.0,4.0,53,0.00,,---,0.12,VWS V14.01,2013-01-15 01:03:00,
2013-01-14 20:08:00,38.0,22.4,30.22,ENE,68,3.1,4.9,53,0.00,,---,0.12,VWS V14.01,2013-01-15 01:08:00,
2013-01-14 20:13:00,38.0,22.4,30.22,WNW,297,0.0,0.0,53,0.00,,---,0.12,VWS V14.01,2013-01-15 01:13:00,
2013-01-14 20:18:00,37.8,22.3,30.22,North,356,2.7,3.6,53,0.00,,---,0.12,VWS V14.01,2013-01-15 01:18:00,
2013-01-14 20:23:00,37.8,22.3,30.22,NNE,30,0.0,0.0,53,0.00,,---,0.12,VWS V14.01,2013-01-15 01:23:00,
2013-01-14 20:28:00,37.8,22.3,30.22,SE,126,0.0,0.0,53,0.00,,---,0.12,VWS V14.01,2013-01-15 01:28:00,
2013-01-14 20:33:00,37.8,22.3,30.22,North,356,0.0,3.1,53,0.00,,---,0.12,VWS V14.01,2013-01-15 01:33:00,
2013-01-14 20:38:00,37.8,22.3,30.24,NE,55,2.7,2.7,53,0.00,,---,0.12,VWS V14.01,2013-01-15 01:38:00,
2013-01-14 20:43:00,37.8,22.3,30.24,NE,48,3.6,3.6,53,0.00,,---,0.12,VWS V14.01,2013-01-15 01:43:00,
2013-01-14 20:48:00,37.7,23.4,30.24,NNW,333,2.7,4.5,56,0.00,,---,0.12,VWS V14.01,2013-01-15 01:48:00,
2013-01-14 20:53:00,37.5,23.2,30.24,North,351,4.0,4.5,56,0.00,,---,0.12,VWS V14.01,2013-01-15 01:53:00,
2013-01-14 20:58:00,37.5,23.2,30.24,NNE,22,3.6,5.4,56,0.00,,---,0.12,VWS V14.01,2013-01-15 01:58:00,
2013-01-14 21:03:00,37.3,23.1,30.24,North,2,0.0,0.0,56,0.00,,---,0.12,VWS V14.01,2013-01-15 02:03:00,
2013-01-14 21:08:00,37.1,22.9,30.24,NW,312,3.1,4.5,56,0.00,,---,0.12,VWS V14.01,2013-01-15 02:08:00,
2013-01-14 21:13:00,36.9,22.7,30.24,North,356,0.0,4.5,56,0.00,,---,0.12,VWS V14.01,2013-01-15 02:13:00,
2013-01-14 21:18:00,36.8,22.5,30.24,North,3,0.0,0.0,56,0.00,,---,0.12,VWS V14.01,2013-01-15 02:18:00,
2013-01-14 21:23:00,36.6,23.6,30.24,NNE,25,3.6,4.9,59,0.00,,---,0.12,VWS V14.01,2013-01-15 02:23:00,
2013-01-14 21:28:00,36.6,23.6,30.24,NNE,16,3.1,4.9,59,0.00,,---,0.12,VWS V14.01,2013-01-15 02:28:00,
2013-01-14 21:33:00,36.4,22.2,30.24,North,351,3.6,4.0,56,0.00,,---,0.12,VWS V14.01,2013-01-15 02:33:00,
2013-01-14 21:38:00,36.4,23.5,30.24,NE,43,3.1,4.5,59,0.00,,---,0.12,VWS V14.01,2013-01-15 02:38:00,
2013-01-14 21:43:00,36.2,23.3,30.24,NE,54,0.0,0.0,59,0.00,,---,0.12,VWS V14.01,2013-01-15 02:43:00,
2013-01-14 21:48:00,36.2,23.3,30.24,NE,34,2.7,4.9,59,0.00,,---,0.12,VWS V14.01,2013-01-15 02:48:00,
2013-01-14 21:53:00,36.0,23.1,30.24,North,2,4.5,5.4,59,0.00,,---,0.12,VWS V14.01,2013-01-15 02:53:00,
2013-01-14 21:58:00,36.0,23.1,30.24,NNE,14,3.6,5.4,59,0.00,,---,0.12,VWS V14.01,2013-01-15 02:58:00,
2013-01-14 22:03:00,35.9,23.0,30.24,North,351,4.0,4.5,59,0.00,,---,0.12,VWS V14.01,2013-01-15 03:03:00,
2013-01-14 22:08:00,35.9,23.0,30.24,NNE,32,0.0,3.1,59,0.00,,---,0.12,VWS V14.01,2013-01-15 03:08:00,
2013-01-14 22:13:00,35.7,22.8,30.24,NE,53,0.0,0.0,59,0.00,,---,0.12,VWS V14.01,2013-01-15 03:13:00,
2013-01-14 22:18:00,35.7,22.8,30.24,NNE,33,0.0,0.0,59,0.00,,---,0.12,VWS V14.01,2013-01-15 03:18:00,
2013-01-14 22:23:00,35.7,22.8,30.22,NNE,13,0.0,0.0,59,0.00,,---,0.12,VWS V14.01,2013-01-15 03:23:00,
2013-01-14 22:28:00,35.5,22.6,30.22,SW,230,0.0,0.0,59,0.00,,---,0.12,VWS V14.01,2013-01-15 03:28:00,
2013-01-14 22:33:00,35.3,22.4,30.22,SW,230,0.0,0.0,59,0.00,,---,0.12,VWS V14.01,2013-01-15 03:33:00,
2013-01-14 22:38:00,35.3,22.4,30.22,SW,217,0.0,0.0,59,0.00,,---,0.12,VWS V14.01,2013-01-15 03:38:00,
2013-01-14 22:43:00,35.3,22.4,30.22,SSW,208,0.0,0.0,59,0.00,,---,0.12,VWS V14.01,2013-01-15 03:43:00,
2013-01-14 22:48:00,35.3,22.4,30.22,ESE,103,3.6,4.5,59,0.00,,---,0.12,VWS V14.01,2013-01-15 03:48:00,
2013-01-14 22:53:00,35.3,22.4,30.22,ESE,103,2.7,4.0,59,0.00,,---,0.12,VWS V14.01,2013-01-15 03:53:00,
2013-01-14 22:58:00,35.3,22.4,30.22,ENE,67,4.5,4.5,59,0.00,,---,0.12,VWS V14.01,2013-01-15 03:58:00,
2013-01-14 23:03:00,35.1,23.5,30.22,East,79,3.1,3.6,62,0.00,,---,0.12,VWS V14.01,2013-01-15 04:03:00,
2013-01-14 23:08:00,35.1,23.5,30.22,NE,45,4.0,4.0,62,0.00,,---,0.12,VWS V14.01,2013-01-15 04:08:00,
2013-01-14 23:13:00,35.1,23.5,30.22,North,356,3.1,3.1,62,0.00,,---,0.12,VWS V14.01,2013-01-15 04:13:00,
2013-01-14 23:18:00,35.1,24.2,30.22,North,1,0.0,0.0,64,0.00,,---,0.12,VWS V14.01,2013-01-15 04:18:00,
2013-01-14 23:23:00,35.0,24.0,30.24,NNW,331,0.0,4.5,64,0.00,,---,0.12,VWS V14.01,2013-01-15 04:23:00,
2013-01-14 23:28:00,35.0,24.4,30.24,North,351,0.0,0.0,65,0.00,,---,0.12,VWS V14.01,2013-01-15 04:28:00,
2013-01-14 23:33:00,35.0,24.0,30.24,North,1,4.5,4.9,64,0.00,,---,0.12,VWS V14.01,2013-01-15 04:33:00,
2013-01-14 23:38:00,34.8,23.9,30.27,NW,309,0.0,0.0,64,0.00,,---,0.12,VWS V14.01,2013-01-15 04:38:00,
2013-01-14 23:43:00,34.8,23.9,30.27,North,3,4.5,4.5,64,0.00,,---,0.12,VWS V14.01,2013-01-15 04:43:00,
2013-01-14 23:48:00,34.6,24.1,30.27,NNW,343,4.9,6.7,65,0.00,,---,0.12,VWS V14.01,2013-01-15 04:48:00,
2013-01-14 23:53:00,34.6,23.7,30.24,East,91,4.0,5.8,64,0.00,,---,0.12,VWS V14.01,2013-01-15 04:53:00,
2013-01-14 23:58:00,34.4,23.5,30.24,SE,140,3.1,3.1,64,0.00,,---,0.12,VWS V14.01,2013-01-15 04:58:00,